This is the latest recevied weather packets stored in our database for station/object p43g-13. If no packets are shown the sender has not sent any weather packets the latest 10 day(s).
| Time | Temp. | Humidity | Pressure | Rain* | Wind** | Luminosity | Snow |
|---|---|---|---|---|---|---|---|
| 1787428875 | 30° C | 78% | 1009.9 hPa | 0 mm | - | 458 W/m² | - |
| 1787428575 | 30° C | 78% | 1009.9 hPa | 0 mm | - | 579 W/m² | - |
| 1787428275 | 30.56° C | 76% | 1009.8 hPa | 0 mm | - | 156 W/m² | - |
| 1787427975 | 30.56° C | 78% | 1009.9 hPa | 0 mm | - | 214 W/m² | - |
| 1787427675 | 30.56° C | 77% | 1009.9 hPa | 0 mm | - | 689 W/m² | - |
| 1787427375 | 31.11° C | 75% | 1010.1 hPa | 0 mm | - | 458 W/m² | - |
| 1787427075 | 31.11° C | 73% | 1009.9 hPa | 0 mm | - | 634 W/m² | - |
| 1787426775 | 31.11° C | 72% | 1009.9 hPa | 0 mm | - | 651 W/m² | - |
| 1787426475 | 31.67° C | 71% | 1009.7 hPa | 0 mm | - | 668 W/m² | - |
| 1787426175 | 31.67° C | 72% | 1010.1 hPa | 0 mm | - | 677 W/m² | - |
| 1787425875 | 31.67° C | 72% | 1010 hPa | 0 mm | - | 680 W/m² | - |
| 1787425574 | 32.78° C | 70% | 1010 hPa | 0 mm | - | 686 W/m² | - |
| 1787425275 | 32.22° C | 69% | 1010 hPa | 0 mm | - | 719 W/m² | - |
| 1787424975 | 31.67° C | 71% | 1010 hPa | 0 mm | - | 745 W/m² | - |
| 1787424675 | 31.67° C | 70% | 1010.3 hPa | 0 mm | - | 759 W/m² | - |
| 1787424375 | 32.22° C | 72% | 1010.4 hPa | 0 mm | - | 834 W/m² | - |
| 1787424076 | 31.67° C | 72% | 1010.2 hPa | 0 mm | - | 812 W/m² | - |
| 1787423775 | 31.67° C | 72% | 1010.4 hPa | 0 mm | - | 796 W/m² | - |
| 1787423475 | 31.67° C | 72% | 1010.4 hPa | 0 mm | - | 812 W/m² | - |
| 1787423175 | 31.11° C | 74% | 1010.6 hPa | 0 mm | - | 830 W/m² | - |
| 1787422875 | 31.67° C | 74% | 1010.7 hPa | 0 mm | - | 837 W/m² | - |
| 1787422575 | 31.67° C | 73% | 1011 hPa | 0 mm | - | 813 W/m² | - |
| 1787422275 | 31.67° C | 73% | 1010.9 hPa | 0 mm | - | 789 W/m² | - |
| 1787421975 | 31.67° C | 74% | 1011 hPa | 0 mm | - | 812 W/m² | - |
| 1787421675 | 31.11° C | 73% | 1011.2 hPa | 0 mm | - | 839 W/m² | - |
* Rain latest hour (hover to see other rain measurements)
** Current wind speed in m/s (hover to see current wind gust speed)